Time,TemperatureF,DewpointF,PressureIn,WindDirection,WindDirectionDegrees,WindSpeedMPH,WindSpeedGustMPH,Humidity,HourlyPrecipIn,Conditions,Clouds,dailyrainin,SoftwareType,DateUTC
2013-01-25 00:05:00,14.3,4.0,30.53,SSW,199,0.0,0.0,63,0.00,,,0.00,Wunderground v.1.15,2013-01-25 05:05:00,
2013-01-25 00:10:00,14.3,3.6,30.52,SSW,199,0.0,0.0,62,0.00,,,0.00,Wunderground v.1.15,2013-01-25 05:10:00,
2013-01-25 00:20:00,14.3,4.3,30.52,SSW,199,0.0,0.0,64,0.00,,,0.00,Wunderground v.1.15,2013-01-25 05:20:00,
2013-01-25 00:25:00,13.9,5.6,30.52,SSW,200,0.0,0.0,69,0.00,,,0.00,Wunderground v.1.15,2013-01-25 05:25:00,
2013-01-25 00:34:00,13.4,4.8,30.52,SSW,199,0.0,0.0,68,0.00,,,0.00,Wunderground v.1.15,2013-01-25 05:34:00,
2013-01-25 00:44:00,13.3,5.3,30.51,SSW,199,0.0,0.0,70,0.00,,,0.00,Wunderground v.1.15,2013-01-25 05:44:00,
2013-01-25 00:50:00,13.1,5.8,30.50,SSW,199,0.0,0.0,72,0.00,,,0.00,Wunderground v.1.15,2013-01-25 05:50:00,
2013-01-25 00:59:00,12.5,5.2,30.51,SSW,200,0.0,0.0,72,0.00,,,0.00,Wunderground v.1.15,2013-01-25 05:59:00,
2013-01-25 01:05:00,12.4,5.7,30.51,SSW,200,0.0,0.0,74,0.00,,,0.00,Wunderground v.1.15,2013-01-25 06:05:00,
2013-01-25 01:14:00,12.1,5.7,30.50,SSW,199,0.0,0.0,75,0.00,,,0.00,Wunderground v.1.15,2013-01-25 06:14:00,
2013-01-25 01:19:00,11.9,5.8,30.49,SSW,199,0.0,0.0,76,0.00,,,0.00,Wunderground v.1.15,2013-01-25 06:19:00,
2013-01-25 01:25:00,11.7,5.3,30.50,SSW,199,0.0,0.0,75,0.00,,,0.00,Wunderground v.1.15,2013-01-25 06:25:00,
2013-01-25 01:34:00,11.6,5.8,30.49,SSW,199,0.0,0.0,77,0.00,,,0.00,Wunderground v.1.15,2013-01-25 06:34:00,
2013-01-25 01:44:00,11.5,5.7,30.49,SSW,200,0.0,1.0,77,0.00,,,0.00,Wunderground v.1.15,2013-01-25 06:44:00,
2013-01-25 01:50:00,11.6,5.5,30.49,SSW,199,0.0,0.0,76,0.00,,,0.00,Wunderground v.1.15,2013-01-25 06:50:00,
2013-01-25 01:59:00,12.0,6.2,30.50,WSW,239,0.0,0.0,77,0.00,,,0.00,Wunderground v.1.15,2013-01-25 06:59:00,
2013-01-25 02:05:00,12.2,6.1,30.49,WSW,239,0.0,0.0,76,0.00,,,0.00,Wunderground v.1.15,2013-01-25 07:05:00,
2013-01-25 02:14:00,12.5,6.9,30.50,WSW,239,0.0,0.0,78,0.00,,,0.00,Wunderground v.1.15,2013-01-25 07:14:00,
2013-01-25 02:19:00,12.6,6.8,30.50,WSW,239,0.0,0.0,77,0.00,,,0.00,Wunderground v.1.15,2013-01-25 07:19:00,
2013-01-25 02:25:00,12.6,7.3,30.50,WSW,239,0.0,0.0,79,0.00,,,0.00,Wunderground v.1.15,2013-01-25 07:25:00,
2013-01-25 02:34:00,12.6,7.6,30.49,WSW,239,0.0,0.0,80,0.00,,,0.00,Wunderground v.1.15,2013-01-25 07:34:00,
2013-01-25 02:40:00,12.7,8.0,30.48,WSW,239,0.0,0.0,81,0.00,,,0.00,Wunderground v.1.15,2013-01-25 07:40:00,
2013-01-25 02:50:00,12.7,8.0,30.48,WSW,239,0.0,0.0,81,0.00,,,0.00,Wunderground v.1.15,2013-01-25 07:50:00,
2013-01-25 02:59:00,12.5,7.5,30.49,WSW,239,0.0,0.0,80,0.00,,,0.00,Wunderground v.1.15,2013-01-25 07:59:00,
2013-01-25 03:05:00,12.5,7.5,30.49,WSW,239,0.0,0.0,80,0.00,,,0.00,Wunderground v.1.15,2013-01-25 08:05:00,
2013-01-25 03:14:00,12.3,7.0,30.48,WSW,239,0.0,0.0,79,0.00,,,0.00,Wunderground v.1.15,2013-01-25 08:14:00,
2013-01-25 03:19:00,12.3,7.6,30.49,WSW,239,0.0,0.0,81,0.00,,,0.00,Wunderground v.1.15,2013-01-25 08:19:00,
2013-01-25 03:25:00,12.3,7.6,30.49,WSW,239,0.0,0.0,81,0.00,,,0.00,Wunderground v.1.15,2013-01-25 08:25:00,
2013-01-25 03:34:00,12.2,7.8,30.48,WSW,239,0.0,0.0,82,0.00,,,0.00,Wunderground v.1.15,2013-01-25 08:34:00,
2013-01-25 03:44:00,12.1,7.7,30.47,WSW,239,0.0,0.0,82,0.00,,,0.00,Wunderground v.1.15,2013-01-25 08:44:00,
2013-01-25 03:49:00,12.0,7.6,30.48,WSW,239,0.0,0.0,82,0.00,,,0.00,Wunderground v.1.15,2013-01-25 08:49:00,
2013-01-25 03:59:00,11.6,7.4,30.47,WSW,239,0.0,0.0,83,0.00,,,0.00,Wunderground v.1.15,2013-01-25 08:59:00,
2013-01-25 04:05:00,11.4,7.2,30.47,WSW,239,0.0,0.0,83,0.00,,,0.00,Wunderground v.1.15,2013-01-25 09:05:00,
2013-01-25 04:15:00,11.1,6.9,30.48,WSW,239,0.0,0.0,83,0.00,,,0.00,Wunderground v.1.15,2013-01-25 09:15:00,
2013-01-25 04:25:00,10.9,6.8,30.48,WSW,239,0.0,0.0,83,0.00,,,0.00,Wunderground v.1.15,2013-01-25 09:25:00,
2013-01-25 04:30:00,10.9,6.8,30.48,WSW,239,0.0,0.0,83,0.00,,,0.00,Wunderground v.1.15,2013-01-25 09:30:00,
2013-01-25 04:40:00,11.2,6.8,30.48,WSW,239,0.0,0.0,82,0.00,,,0.00,Wunderground v.1.15,2013-01-25 09:40:00,
2013-01-25 04:50:00,11.3,7.1,30.48,WSW,239,0.0,0.0,83,0.00,,,0.00,Wunderground v.1.15,2013-01-25 09:50:00,
2013-01-25 05:00:00,11.6,7.7,30.49,WSW,239,0.0,0.0,84,0.00,,,0.00,Wunderground v.1.15,2013-01-25 10:00:00,
2013-01-25 05:05:00,11.8,8.2,30.48,WSW,239,0.0,0.0,85,0.00,,,0.00,Wunderground v.1.15,2013-01-25 10:05:00,
2013-01-25 05:14:00,12.0,8.4,30.48,WSW,239,0.0,0.0,85,0.00,,,0.00,Wunderground v.1.15,2013-01-25 10:14:00,
2013-01-25 05:20:00,12.1,8.5,30.47,WSW,239,0.0,0.0,85,0.00,,,0.00,Wunderground v.1.15,2013-01-25 10:20:00,
2013-01-25 05:29:00,12.2,8.6,30.48,WSW,239,0.0,0.0,85,0.00,,,0.00,Wunderground v.1.15,2013-01-25 10:29:00,
2013-01-25 05:39:00,12.0,8.4,30.48,WSW,239,0.0,0.0,85,0.00,,,0.00,Wunderground v.1.15,2013-01-25 10:39:00,
2013-01-25 05:45:00,11.9,8.3,30.48,WSW,239,0.0,0.0,85,0.00,,,0.00,Wunderground v.1.15,2013-01-25 10:45:00,
2013-01-25 05:54:00,12.0,8.4,30.48,WSW,238,0.0,0.0,85,0.00,,,0.00,Wunderground v.1.15,2013-01-25 10:54:00,
2013-01-25 06:00:00,12.1,8.2,30.48,WSW,239,0.0,0.0,84,0.00,,,0.00,Wunderground v.1.15,2013-01-25 11:00:00,
2013-01-25 06:05:00,12.1,7.9,30.47,WSW,239,0.0,0.0,83,0.00,,,0.00,Wunderground v.1.15,2013-01-25 11:05:00,
2013-01-25 06:15:00,12.1,8.5,30.46,WSW,239,0.0,0.0,85,0.00,,,0.00,Wunderground v.1.15,2013-01-25 11:15:00,
2013-01-25 06:24:00,11.9,8.3,30.47,WSW,239,0.0,0.0,85,0.00,,,0.00,Wunderground v.1.15,2013-01-25 11:24:00,
2013-01-25 06:30:00,11.8,8.2,30.47,WSW,239,0.0,0.0,85,0.00,,,0.00,Wunderground v.1.15,2013-01-25 11:30:00,
2013-01-25 06:39:00,11.7,8.1,30.47,WSW,239,0.0,0.0,85,0.00,,,0.00,Wunderground v.1.15,2013-01-25 11:39:00,
2013-01-25 06:45:00,11.7,8.3,30.46,WSW,239,0.0,0.0,86,0.00,,,0.00,Wunderground v.1.15,2013-01-25 11:45:00,
2013-01-25 06:54:00,11.9,8.5,30.46,WSW,239,0.0,0.0,86,0.00,,,0.00,Wunderground v.1.15,2013-01-25 11:54:00,
2013-01-25 07:00:00,12.1,9.0,30.46,WSW,239,0.0,0.0,87,0.00,,,0.00,Wunderground v.1.15,2013-01-25 12:00:00,
2013-01-25 07:05:00,12.3,8.9,30.46,WSW,239,0.0,0.0,86,0.00,,,0.00,Wunderground v.1.15,2013-01-25 12:05:00,
2013-01-25 07:14:00,12.3,8.7,30.46,WSW,239,0.0,0.0,85,0.00,,,0.00,Wunderground v.1.15,2013-01-25 12:14:00,
2013-01-25 07:19:00,12.5,8.8,30.45,WSW,239,0.0,0.0,85,0.00,,,0.00,Wunderground v.1.15,2013-01-25 12:19:00,
2013-01-25 07:29:00,12.6,8.9,30.46,WSW,239,0.0,0.0,85,0.00,,,0.00,Wunderground v.1.15,2013-01-25 12:29:00,
2013-01-25 07:35:00,12.7,9.3,30.45,WSW,239,0.0,0.0,86,0.00,,,0.00,Wunderground v.1.15,2013-01-25 12:35:00,
2013-01-25 07:44:00,12.9,9.5,30.45,WSW,239,0.0,0.0,86,0.00,,,0.00,Wunderground v.1.15,2013-01-25 12:44:00,
2013-01-25 07:50:00,13.0,9.6,30.46,WSW,239,0.0,0.0,86,0.00,,,0.00,Wunderground v.1.15,2013-01-25 12:50:00,
2013-01-25 07:59:00,13.4,9.7,30.45,WSW,238,0.0,0.0,85,0.00,,,0.00,Wunderground v.1.15,2013-01-25 12:59:00,
2013-01-25 08:05:00,13.6,9.9,30.45,WSW,239,0.0,0.0,85,0.00,,,0.00,Wunderground v.1.15,2013-01-25 13:05:00,
2013-01-25 08:14:00,14.2,10.5,30.44,WSW,238,0.0,0.0,85,0.00,,,0.00,Wunderground v.1.15,2013-01-25 13:14:00,
2013-01-25 08:19:00,14.3,10.6,30.44,WSW,239,0.0,0.0,85,0.00,,,0.00,Wunderground v.1.15,2013-01-25 13:19:00,
2013-01-25 08:25:00,14.4,10.7,30.43,WSW,238,0.0,0.0,85,0.00,,,0.00,Wunderground v.1.15,2013-01-25 13:25:00,
2013-01-25 08:34:00,14.7,11.0,30.42,WSW,239,0.0,0.0,85,0.00,,,0.00,Wunderground v.1.15,2013-01-25 13:34:00,
2013-01-25 08:40:00,15.0,11.6,30.42,WSW,238,0.0,0.0,86,0.00,,,0.00,Wunderground v.1.15,2013-01-25 13:40:00,
2013-01-25 08:50:00,15.6,11.9,30.42,WSW,238,0.0,0.0,85,0.00,,,0.00,Wunderground v.1.15,2013-01-25 13:50:00,
2013-01-25 08:59:00,16.5,12.5,30.42,WSW,238,0.0,0.0,84,0.00,,,0.00,Wunderground v.1.15,2013-01-25 13:59:00,
2013-01-25 09:05:00,17.0,13.0,30.42,WSW,237,0.0,0.0,84,0.00,,,0.00,Wunderground v.1.15,2013-01-25 14:05:00,
2013-01-25 09:14:00,17.7,13.4,30.42,WSW,239,0.0,0.0,83,0.00,,,0.00,Wunderground v.1.15,2013-01-25 14:14:00,
2013-01-25 09:19:00,17.9,13.3,30.42,WSW,239,0.0,0.0,82,0.00,,,0.00,Wunderground v.1.15,2013-01-25 14:19:00,
2013-01-25 09:25:00,18.1,13.5,30.42,WSW,239,0.0,0.0,82,0.00,,,0.00,Wunderground v.1.15,2013-01-25 14:25:00,
2013-01-25 09:34:00,18.4,13.8,30.40,WSW,239,0.0,0.0,82,0.00,,,0.00,Wunderground v.1.15,2013-01-25 14:34:00,
2013-01-25 09:40:00,18.6,14.0,30.41,WSW,238,0.0,0.0,82,0.00,,,0.00,Wunderground v.1.15,2013-01-25 14:40:00,
2013-01-25 09:49:00,19.2,14.0,30.40,WSW,239,0.0,0.0,80,0.00,,,0.00,Wunderground v.1.15,2013-01-25 14:49:00,
2013-01-25 09:59:00,19.8,14.3,30.40,WSW,239,0.0,0.0,79,0.00,,,0.00,Wunderground v.1.15,2013-01-25 14:59:00,
2013-01-25 10:05:00,20.2,14.4,30.39,SSW,201,0.0,3.0,78,0.00,,,0.00,Wunderground v.1.15,2013-01-25 15:05:00,
2013-01-25 10:15:00,21.5,12.9,30.38,SSE,154,0.0,2.0,69,0.00,,,0.00,Wunderground v.1.15,2013-01-25 15:15:00,
2013-01-25 10:24:00,22.7,13.4,30.38,SSE,154,0.0,0.0,67,0.00,,,0.00,Wunderground v.1.15,2013-01-25 15:24:00,
2013-01-25 10:34:00,23.3,12.2,30.37,South,177,0.0,1.0,62,0.00,,,0.00,Wunderground v.1.15,2013-01-25 15:34:00,
2013-01-25 10:39:00,23.6,13.9,30.37,South,177,0.0,0.0,66,0.00,,,0.00,Wunderground v.1.15,2013-01-25 15:39:00,
2013-01-25 10:49:00,23.6,13.2,30.36,SSE,168,1.0,1.0,64,0.00,,,0.00,Wunderground v.1.15,2013-01-25 15:49:00,
2013-01-25 10:55:00,23.5,13.5,30.35,SSE,166,1.0,3.0,65,0.00,,,0.00,Wunderground v.1.15,2013-01-25 15:55:00,
2013-01-25 11:05:00,23.3,12.9,30.35,South,181,1.0,3.0,64,0.00,,,0.00,Wunderground v.1.15,2013-01-25 16:05:00,
2013-01-25 11:15:00,23.4,12.6,30.34,SSE,168,1.0,1.0,63,0.00,,,0.00,Wunderground v.1.15,2013-01-25 16:15:00,
2013-01-25 11:20:00,23.6,12.1,30.35,South,179,1.0,2.0,61,0.00,,,0.00,Wunderground v.1.15,2013-01-25 16:20:00,
2013-01-25 11:29:00,24.1,12.6,30.34,SSW,201,1.0,2.0,61,0.00,,,0.00,Wunderground v.1.15,2013-01-25 16:29:00,
2013-01-25 11:39:00,24.2,12.7,30.32,SSW,206,0.0,0.0,61,0.00,,,0.00,Wunderground v.1.15,2013-01-25 16:39:00,
2013-01-25 11:45:00,24.2,11.9,30.32,SSW,195,0.0,1.0,59,0.00,,,0.00,Wunderground v.1.15,2013-01-25 16:45:00,
2013-01-25 11:54:00,24.3,12.8,30.31,SSW,201,1.0,1.0,61,0.00,,,0.00,Wunderground v.1.15,2013-01-25 16:54:00,
2013-01-25 12:00:00,24.2,12.7,30.31,SSE,166,1.0,1.0,61,0.00,,,0.00,Wunderground v.1.15,2013-01-25 17:00:00,
2013-01-25 12:05:00,24.2,13.0,30.30,SW,215,0.0,1.0,62,0.00,,,0.00,Wunderground v.1.15,2013-01-25 17:05:00,
2013-01-25 12:14:00,24.1,12.6,30.29,South,172,0.0,0.0,61,0.00,,,0.00,Wunderground v.1.15,2013-01-25 17:14:00,
2013-01-25 12:20:00,24.2,13.0,30.29,South,170,0.0,2.0,62,0.00,,,0.00,Wunderground v.1.15,2013-01-25 17:20:00,
2013-01-25 12:30:00,24.3,12.0,30.28,SE,132,0.0,0.0,59,0.00,,,0.00,Wunderground v.1.15,2013-01-25 17:30:00,
2013-01-25 12:39:00,24.5,13.0,30.26,SSE,158,0.0,0.0,61,0.00,,,0.00,Wunderground v.1.15,2013-01-25 17:39:00,
2013-01-25 12:44:00,24.7,12.8,30.26,SSE,159,0.0,0.0,60,0.00,,,0.00,Wunderground v.1.15,2013-01-25 17:44:00,
2013-01-25 12:54:00,24.6,11.9,30.25,SSW,200,0.0,3.0,58,0.00,,,0.00,Wunderground v.1.15,2013-01-25 17:54:00,
2013-01-25 13:00:00,24.5,12.6,30.24,SSE,164,1.0,1.0,60,0.00,,,0.00,Wunderground v.1.15,2013-01-25 18:00:00,
2013-01-25 13:05:00,24.4,13.6,30.24,SSW,202,1.0,1.0,63,0.00,,,0.00,Wunderground v.1.15,2013-01-25 18:05:00,
2013-01-25 13:14:00,23.8,15.4,30.24,SSW,194,0.0,0.0,70,0.00,,,0.00,Wunderground v.1.15,2013-01-25 18:14:00,
2013-01-25 13:24:00,23.0,15.6,30.25,South,174,1.0,1.0,73,0.00,,,0.00,Wunderground v.1.15,2013-01-25 18:24:00,
2013-01-25 13:29:00,22.7,16.9,30.23,SSW,205,1.0,1.0,78,0.00,,,0.00,Wunderground v.1.15,2013-01-25 18:29:00,
2013-01-25 13:35:00,22.4,16.6,30.22,South,179,0.0,1.0,78,0.00,,,0.00,Wunderground v.1.15,2013-01-25 18:35:00,
2013-01-25 13:45:00,22.2,16.7,30.23,South,173,0.0,0.0,79,0.00,,,0.00,Wunderground v.1.15,2013-01-25 18:45:00,
2013-01-25 13:54:00,22.2,16.1,30.20,SSE,156,0.0,0.0,77,0.00,,,0.00,Wunderground v.1.15,2013-01-25 18:54:00,
2013-01-25 13:59:00,22.2,16.1,30.21,SSE,160,0.0,0.0,77,0.00,,,0.00,Wunderground v.1.15,2013-01-25 18:59:00,
2013-01-25 14:05:00,22.4,16.0,30.20,South,170,0.0,2.0,76,0.00,,,0.00,Wunderground v.1.15,2013-01-25 19:05:00,
2013-01-25 14:14:00,22.5,16.1,30.18,SSW,193,1.0,4.0,76,0.00,,,0.00,Wunderground v.1.15,2013-01-25 19:14:00,
2013-01-25 14:19:00,22.6,16.2,30.19,WNW,291,1.0,1.0,76,0.00,,,0.00,Wunderground v.1.15,2013-01-25 19:19:00,
2013-01-25 14:29:00,22.6,16.5,30.19,South,186,1.0,1.0,77,0.00,,,0.00,Wunderground v.1.15,2013-01-25 19:29:00,
2013-01-25 14:35:00,22.5,16.7,30.18,SE,141,0.0,1.0,78,0.00,,,0.00,Wunderground v.1.15,2013-01-25 19:35:00,
2013-01-25 14:44:00,22.3,16.8,30.18,West,277,1.0,2.0,79,0.00,,,0.00,Wunderground v.1.15,2013-01-25 19:44:00,
2013-01-25 14:50:00,22.3,17.1,30.17,WSW,244,1.0,1.0,80,0.00,,,0.00,Wunderground v.1.15,2013-01-25 19:50:00,
2013-01-25 14:59:00,22.2,17.3,30.17,SSE,159,1.0,1.0,81,0.00,,,0.00,Wunderground v.1.15,2013-01-25 19:59:00,
2013-01-25 15:05:00,22.2,17.5,30.17,SE,141,1.0,1.0,82,0.00,,,0.00,Wunderground v.1.15,2013-01-25 20:05:00,
2013-01-25 15:14:00,22.2,17.8,30.16,South,174,0.0,1.0,83,0.00,,,0.00,Wunderground v.1.15,2013-01-25 20:14:00,
2013-01-25 15:19:00,22.3,17.9,30.16,South,170,0.0,0.0,83,0.00,,,0.00,Wunderground v.1.15,2013-01-25 20:19:00,
2013-01-25 15:25:00,22.4,18.0,30.16,SSE,151,0.0,0.0,83,0.00,,,0.00,Wunderground v.1.15,2013-01-25 20:25:00,
2013-01-25 15:34:00,22.5,18.4,30.16,South,181,0.0,1.0,84,0.00,,,0.00,Wunderground v.1.15,2013-01-25 20:34:00,
2013-01-25 15:40:00,22.5,18.4,30.15,South,181,0.0,0.0,84,0.00,,,0.00,Wunderground v.1.15,2013-01-25 20:40:00,
2013-01-25 15:49:00,22.5,18.4,30.15,SSW,207,0.0,0.0,84,0.00,,,0.00,Wunderground v.1.15,2013-01-25 20:49:00,
2013-01-25 15:59:00,22.5,18.4,30.15,SSE,162,0.0,0.0,84,0.00,,,0.00,Wunderground v.1.15,2013-01-25 20:59:00,
2013-01-25 16:05:00,22.4,18.3,30.14,South,172,0.0,0.0,84,0.00,,,0.00,Wunderground v.1.15,2013-01-25 21:05:00,
2013-01-25 16:15:00,22.3,18.5,30.14,South,180,0.0,0.0,85,0.00,,,0.00,Wunderground v.1.15,2013-01-25 21:15:00,
2013-01-25 16:25:00,22.2,18.7,30.14,SSW,195,0.0,1.0,86,0.00,,,0.00,Wunderground v.1.15,2013-01-25 21:25:00,
2013-01-25 16:34:00,22.2,18.7,30.13,South,181,0.0,0.0,86,0.00,,,0.00,Wunderground v.1.15,2013-01-25 21:34:00,
2013-01-25 16:40:00,22.2,18.7,30.13,South,184,0.0,0.0,86,0.00,,,0.00,Wunderground v.1.15,2013-01-25 21:40:00,
2013-01-25 16:49:00,22.3,18.5,30.12,South,183,0.0,0.0,85,0.00,,,0.00,Wunderground v.1.15,2013-01-25 21:49:00,
2013-01-25 16:55:00,22.3,18.5,30.12,South,183,0.0,0.0,85,0.00,,,0.00,Wunderground v.1.15,2013-01-25 21:55:00,
2013-01-25 17:05:00,22.3,18.5,30.12,South,189,0.0,0.0,85,0.00,,,0.00,Wunderground v.1.15,2013-01-25 22:05:00,
2013-01-25 17:15:00,22.2,18.4,30.11,SE,137,0.0,0.0,85,0.00,,,0.00,Wunderground v.1.15,2013-01-25 22:15:00,
2013-01-25 17:24:00,22.3,18.7,30.11,SSE,163,0.0,3.0,86,0.00,,,0.00,Wunderground v.1.15,2013-01-25 22:24:00,
2013-01-25 17:30:00,22.3,18.7,30.11,South,175,0.0,0.0,86,0.00,,,0.00,Wunderground v.1.15,2013-01-25 22:30:00,
2013-01-25 17:39:00,22.2,18.9,30.11,South,175,0.0,0.0,87,0.00,,,0.00,Wunderground v.1.15,2013-01-25 22:39:00,
2013-01-25 17:49:00,22.0,18.7,30.10,SSE,164,0.0,0.0,87,0.00,,,0.00,Wunderground v.1.15,2013-01-25 22:49:00,
2013-01-25 17:55:00,22.0,19.0,30.10,SSE,164,0.0,0.0,88,0.00,,,0.00,Wunderground v.1.15,2013-01-25 22:55:00,
2013-01-25 18:05:00,21.7,18.7,30.09,SSE,168,0.0,1.0,88,0.00,,,0.00,Wunderground v.1.15,2013-01-25 23:05:00,
2013-01-25 18:14:00,21.6,18.9,30.09,South,170,0.0,1.0,89,0.00,,,0.00,Wunderground v.1.15,2013-01-25 23:14:00,
2013-01-25 18:20:00,21.6,18.9,30.09,South,170,0.0,0.0,89,0.00,,,0.00,Wunderground v.1.15,2013-01-25 23:20:00,
2013-01-25 18:29:00,21.3,18.3,30.10,South,170,0.0,0.0,88,0.00,,,0.00,Wunderground v.1.15,2013-01-25 23:29:00,
2013-01-25 18:39:00,21.0,18.0,30.09,South,170,0.0,0.0,88,0.00,,,0.00,Wunderground v.1.15,2013-01-25 23:39:00,
2013-01-25 18:44:00,20.9,17.9,30.09,South,170,0.0,0.0,88,0.00,,,0.00,Wunderground v.1.15,2013-01-25 23:44:00,
2013-01-25 18:50:00,20.9,18.2,30.09,South,170,0.0,0.0,89,0.00,,,0.00,Wunderground v.1.15,2013-01-25 23:50:00,
2013-01-25 18:59:00,20.9,18.2,30.09,South,170,0.0,0.0,89,0.00,,,0.00,Wunderground v.1.15,2013-01-25 23:59:00,
2013-01-25 19:05:00,21.1,18.4,30.09,South,170,0.0,0.0,89,0.00,,,0.00,Wunderground v.1.15,2013-01-26 00:05:00,
2013-01-25 19:14:00,21.3,18.6,30.08,South,170,0.0,0.0,89,0.00,,,0.00,Wunderground v.1.15,2013-01-26 00:14:00,
2013-01-25 19:19:00,21.4,18.7,30.08,South,170,0.0,0.0,89,0.00,,,0.00,Wunderground v.1.15,2013-01-26 00:19:00,
2013-01-25 19:29:00,21.5,18.8,30.08,South,170,0.0,0.0,89,0.00,,,0.00,Wunderground v.1.15,2013-01-26 00:29:00,
2013-01-25 19:34:00,21.6,18.6,30.08,South,170,0.0,0.0,88,0.00,,,0.00,Wunderground v.1.15,2013-01-26 00:34:00,
2013-01-25 19:44:00,21.8,18.8,30.08,South,170,0.0,0.0,88,0.00,,,0.00,Wunderground v.1.15,2013-01-26 00:44:00,
2013-01-25 19:50:00,21.9,18.9,30.08,South,170,0.0,0.0,88,0.00,,,0.00,Wunderground v.1.15,2013-01-26 00:50:00,
2013-01-25 19:59:00,22.0,19.0,30.08,South,170,0.0,0.0,88,0.00,,,0.00,Wunderground v.1.15,2013-01-26 00:59:00,
2013-01-25 20:05:00,22.1,19.1,30.08,South,170,0.0,0.0,88,0.00,,,0.00,Wunderground v.1.15,2013-01-26 01:05:00,
2013-01-25 20:14:00,22.3,19.3,30.07,South,170,0.0,0.0,88,0.00,,,0.00,Wunderground v.1.15,2013-01-26 01:14:00,
2013-01-25 20:19:00,22.3,19.3,30.07,South,170,0.0,0.0,88,0.00,,,0.00,Wunderground v.1.15,2013-01-26 01:19:00,
2013-01-25 20:25:00,22.4,19.1,30.07,South,170,0.0,0.0,87,0.00,,,0.00,Wunderground v.1.15,2013-01-26 01:25:00,
2013-01-25 20:34:00,22.4,19.1,30.07,South,170,0.0,0.0,87,0.00,,,0.00,Wunderground v.1.15,2013-01-26 01:34:00,
2013-01-25 20:44:00,22.5,18.9,30.07,South,170,0.0,0.0,86,0.00,,,0.00,Wunderground v.1.15,2013-01-26 01:44:00,
2013-01-25 20:49:00,22.5,18.9,30.06,South,170,0.0,0.0,86,0.00,,,0.00,Wunderground v.1.15,2013-01-26 01:49:00,
2013-01-25 20:59:00,22.6,19.3,30.06,South,170,0.0,0.0,87,0.00,,,0.00,Wunderground v.1.15,2013-01-26 01:59:00,
2013-01-25 21:05:00,22.7,19.1,30.06,South,170,0.0,0.0,86,0.00,,,0.00,Wunderground v.1.15,2013-01-26 02:05:00,
2013-01-25 21:15:00,22.6,19.0,30.06,South,175,0.0,0.0,86,0.00,,,0.00,Wunderground v.1.15,2013-01-26 02:15:00,
2013-01-25 21:24:00,22.7,19.4,30.06,South,175,0.0,0.0,87,0.00,,,0.00,Wunderground v.1.15,2013-01-26 02:24:00,
2013-01-25 21:30:00,22.6,19.0,30.06,South,175,0.0,0.0,86,0.00,,,0.00,Wunderground v.1.15,2013-01-26 02:30:00,
2013-01-25 21:39:00,22.7,19.1,30.06,South,175,0.0,0.0,86,0.00,,,0.00,Wunderground v.1.15,2013-01-26 02:39:00,
2013-01-25 21:44:00,22.7,19.1,30.06,South,175,0.0,0.0,86,0.00,,,0.00,Wunderground v.1.15,2013-01-26 02:44:00,
2013-01-25 21:50:00,22.6,19.0,30.06,South,175,0.0,0.0,86,0.00,,,0.00,Wunderground v.1.15,2013-01-26 02:50:00,
2013-01-25 21:59:00,22.5,18.9,30.06,South,175,0.0,0.0,86,0.00,,,0.00,Wunderground v.1.15,2013-01-26 02:59:00,
2013-01-25 22:05:00,22.5,18.9,30.06,South,175,0.0,0.0,86,0.00,,,0.00,Wunderground v.1.15,2013-01-26 03:05:00,
2013-01-25 22:15:00,22.4,18.8,30.06,South,174,0.0,0.0,86,0.00,,,0.00,Wunderground v.1.15,2013-01-26 03:15:00,
2013-01-25 22:24:00,22.4,19.1,30.06,South,175,0.0,0.0,87,0.00,,,0.00,Wunderground v.1.15,2013-01-26 03:24:00,
2013-01-25 22:34:00,22.5,19.2,30.06,South,175,0.0,0.0,87,0.00,,,0.00,Wunderground v.1.15,2013-01-26 03:34:00,
2013-01-25 22:40:00,22.6,19.3,30.06,South,175,0.0,0.0,87,0.00,,,0.00,Wunderground v.1.15,2013-01-26 03:40:00,
2013-01-25 22:49:00,22.7,19.4,30.06,South,175,0.0,0.0,87,0.00,,,0.00,Wunderground v.1.15,2013-01-26 03:49:00,
2013-01-25 22:55:00,22.7,19.4,30.06,South,175,0.0,0.0,87,0.00,,,0.00,Wunderground v.1.15,2013-01-26 03:55:00,
2013-01-25 23:05:00,22.8,19.2,30.06,South,175,0.0,0.0,86,0.00,,,0.00,Wunderground v.1.15,2013-01-26 04:05:00,
2013-01-25 23:15:00,22.9,19.6,30.07,South,176,0.0,0.0,87,0.00,,,0.00,Wunderground v.1.15,2013-01-26 04:15:00,
2013-01-25 23:24:00,22.9,19.6,30.07,South,175,0.0,0.0,87,0.00,,,0.00,Wunderground v.1.15,2013-01-26 04:24:00,
2013-01-25 23:29:00,22.9,19.6,30.07,South,175,0.0,0.0,87,0.00,,,0.00,Wunderground v.1.15,2013-01-26 04:29:00,
2013-01-25 23:39:00,22.8,19.5,30.07,South,175,0.0,0.0,87,0.00,,,0.00,Wunderground v.1.15,2013-01-26 04:39:00,
2013-01-25 23:45:00,22.7,19.4,30.07,South,175,0.0,0.0,87,0.00,,,0.00,Wunderground v.1.15,2013-01-26 04:45:00,
2013-01-25 23:54:00,22.6,19.3,30.07,South,175,0.0,0.0,87,0.00,,,0.00,Wunderground v.1.15,2013-01-26 04:54:00,